Satellite: MET-3/5
Catalog number: 21655
Epoch time:      10189.60340249
Element set:     856
Inclination:      082.5594 deg
RA of node:       293.5050 deg
Eccentricity:    0.0012312
Arg of perigee:   298.6226 deg
Mean anomaly:     061.3587 deg
Mean motion:   13.17022984 rev/day
Decay rate:        5.1e-07 rev/day^2
Epoch rev:           90849
Checksum:              308

Satellite: MET-2/21
Catalog number: 22782
Epoch time:      10188.68394666
Element set:    0824
Inclination:      082.5471 deg
RA of node:       236.1800 deg
Eccentricity:    0.0022002
Arg of perigee:   349.6181 deg
Mean anomaly:     010.4520 deg
Mean motion:   13.83645106 rev/day
Decay rate:       -1.8e-07 rev/day^2
Epoch rev:           85091
Checksum:              284

Satellite: OKEAN-4
Catalog number: 23317
Epoch time:      10188.83568885
Element set:     278
Inclination:      082.5418 deg
RA of node:       334.5836 deg
Eccentricity:    0.0022276
Arg of perigee:   169.3675 deg
Mean anomaly:     190.8042 deg
Mean motion:   14.82832778 rev/day
Decay rate:       1.28e-06 rev/day^2
Epoch rev:           84951
Checksum:              344

Satellite: NOAA-14
Catalog number: 23455
Epoch time:      10188.73650177
Element set:    0117
Inclination:      098.8783 deg
RA of node:       269.3378 deg
Eccentricity:    0.0009301
Arg of perigee:   172.2785 deg
Mean anomaly:     187.8522 deg
Mean motion:   14.13789621 rev/day
Decay rate:        2.4e-07 rev/day^2
Epoch rev:           80040
Checksum:              317

Satellite: NOAA-15
Catalog number: 25338
Epoch time:      10188.58893807
Element set:    0438
Inclination:      098.6198 deg
RA of node:       175.1474 deg
Eccentricity:    0.0011087
Arg of perigee:   021.1818 deg
Mean anomaly:     338.9840 deg
Mean motion:   14.24838347 rev/day
Decay rate:        8.0e-08 rev/day^2
Epoch rev:           63165
Checksum:              336

Satellite: RESURS
Catalog number: 25394
Epoch time:      10189.63507893
Element set:     547
Inclination:      098.3041 deg
RA of node:       206.5472 deg
Eccentricity:    0.0001768
Arg of perigee:   123.1048 deg
Mean anomaly:     237.0307 deg
Mean motion:   14.24205327 rev/day
Decay rate:        4.0e-08 rev/day^2
Epoch rev:           62340
Checksum:              273

Satellite: FENGYUN1
Catalog number: 25730
Epoch time:      10189.47917132
Element set:      84
Inclination:      098.7857 deg
RA of node:       153.8800 deg
Eccentricity:    0.0020723
Arg of perigee:   205.9712 deg
Mean anomaly:     154.0427 deg
Mean motion:   14.08189737 rev/day
Decay rate:        2.5e-07 rev/day^2
Epoch rev:           57468
Checksum:              310

Satellite: OKEAN-0
Catalog number: 25860
Epoch time:      10189.46517684
Element set:      40
Inclination:      097.8329 deg
RA of node:       161.4408 deg
Eccentricity:    0.0001661
Arg of perigee:   052.2971 deg
Mean anomaly:     307.8390 deg
Mean motion:   14.73648007 rev/day
Decay rate:        4.6e-07 rev/day^2
Epoch rev:           59003
Checksum:              295

Satellite: NOAA-16
Catalog number: 26536
Epoch time:      10188.62602231
Element set:    0915
Inclination:      099.1698 deg
RA of node:       206.5758 deg
Eccentricity:    0.0009608
Arg of perigee:   281.5917 deg
Mean anomaly:     078.4192 deg
Mean motion:   14.12565128 rev/day
Decay rate:      -1.48e-06 rev/day^2
Epoch rev:           50471
Checksum:              322

Satellite: NOAA-17
Catalog number: 27453
Epoch time:      10188.93261687
Element set:    0916
Inclination:      098.4302 deg
RA of node:       238.5408 deg
Eccentricity:    0.0012758
Arg of perigee:   078.4015 deg
Mean anomaly:     281.8576 deg
Mean motion:   14.24171558 rev/day
Decay rate:        7.9e-07 rev/day^2
Epoch rev:           41765
Checksum:              334

Satellite: NOAA-18
Catalog number: 28654
Epoch time:      10188.93003690
Element set:    0400
Inclination:      098.9494 deg
RA of node:       135.1346 deg
Eccentricity:    0.0014570
Arg of perigee:   359.0580 deg
Mean anomaly:     001.0581 deg
Mean motion:   14.11368232 rev/day
Decay rate:      -1.09e-06 rev/day^2
Epoch rev:           26436
Checksum:              287

Satellite: NOAA-19
Catalog number: 33591
Epoch time:      10188.92255601
Element set:    0597
Inclination:      098.7876 deg
RA of node:       130.6028 deg
Eccentricity:    0.0013146
Arg of perigee:   229.0133 deg
Mean anomaly:     130.9922 deg
Mean motion:   14.11064356 rev/day
Decay rate:      -1.30e-06 rev/day^2
Epoch rev:           07283
Checksum:              292

/EX
SB KEPS @ AMSAT  $ORB10189.M
Orbital Elements  10189.MISC

HR AMSAT ORBITAL ELEMENTS FOR MANNED AND MISCELLANEOUS SATELLITES
FROM WA5QGD FORT WORTH,TX July 8, 2010
Send Subscribe/unsubscribe to KEPS at http://www.amsat.org/mailman/listinfo/kep
BID: ORB10189.M
TO ALL RADIO AMATEURS BT

Satellite: HUBBLE
Catalog number: 20580
Epoch time:      10189.12550785
Element set:     598
Inclination:      028.4681 deg
RA of node:       103.1700 deg
Eccentricity:    0.0003373
Arg of perigee:   068.1193 deg
Mean anomaly:     291.9745 deg
Mean motion:   15.00995398 rev/day
Decay rate:       4.06e-06 rev/day^2
Epoch rev:           90790
Checksum:              304

